time_stamp(utc),avg(mph),gust(mph),direction(deg),12m_air_temp(f),sonic_u(cm/s),sonic_v(cm/s),sonic_w(cm/s),pressure,2m_air_temp(f),pyranometer(W/m^2)
"2020-10-26 00:02:39+00",22.0,26.0,,55.4,850,555,28,1022.16,54.9,0
"2020-10-26 00:07:39+00",22.9,25.9,,55.6,984,407,71,1022.13,54.9,0
"2020-10-26 00:12:39+00",21.0,25.0,,55.8,877,405,51,1022.07,55.1,0
"2020-10-26 00:17:39+00",16.7,20.7,,55.8,676,359,30,1021.99,55.3,0
"2020-10-26 00:22:39+00",19.6,24.6,,56,769,416,61,1021.97,55.3,0
"2020-10-26 00:27:39+00",21.9,24.9,,56.3,924,441,42,1022.01,55.4,0
"2020-10-26 00:32:39+00",18.0,22.0,,56.3,760,348,51,1021.92,55.6,0
"2020-10-26 00:37:39+00",19.8,22.8,,56.5,796,440,10,1021.94,55.7,0
"2020-10-26 00:42:39+00",19.0,24.0,,56.5,736,457,36,1021.92,55.8,0
"2020-10-26 00:47:39+00",16.1,19.1,,56.7,655,366,30,1021.92,55.9,0
"2020-10-26 00:52:39+00",18.7,19.7,,56.8,789,367,37,1021.9,56,0
"2020-10-26 00:57:39+00",17.8,21.8,,57,746,356,53,1021.95,56.2,0
"2020-10-26 01:02:39+00",18.5,22.5,,57.1,763,385,10,1021.88,56.3,0
"2020-10-26 01:07:39+00",18.7,21.7,,57.2,797,356,41,1021.85,56.4,0
"2020-10-26 01:12:39+00",17.2,20.2,,57.3,704,341,54,1021.82,56.5,0
"2020-10-26 01:17:39+00",19.8,23.8,,57.4,832,352,44,1021.84,56.7,0
"2020-10-26 01:22:39+00",19.9,21.9,,57.6,829,405,47,1021.9,56.8,0
"2020-10-26 01:27:39+00",20.4,24.4,,57.8,864,376,52,1021.83,57,0
"2020-10-26 01:32:39+00",18.9,22.9,,58,795,325,40,1021.93,57.2,0
"2020-10-26 01:37:39+00",18.7,22.7,,58,807,325,39,1022.02,57.3,0
"2020-10-26 01:42:39+00",19.4,22.4,,58.2,790,394,75,1022.03,57.4,0
"2020-10-26 01:47:39+00",18.6,21.6,,58.3,791,339,65,1022,57.6,0
"2020-10-26 01:52:39+00",20.9,24.9,,58.5,932,288,70,1021.93,57.7,0
"2020-10-26 01:57:39+00",18.4,22.4,,58.6,776,275,62,1021.96,57.8,0
"2020-10-26 02:02:39+00",19.5,24.5,,58.6,841,330,44,1021.9,57.9,0
"2020-10-26 02:07:39+00",18.2,21.2,,58.7,813,193,51,1021.85,58,0
"2020-10-26 02:12:39+00",18.3,21.3,,58.8,809,179,63,1021.66,58.1,0
"2020-10-26 02:17:39+00",17.3,20.3,,58.9,761,231,55,1021.73,58.2,0
"2020-10-26 02:22:39+00",21.7,25.7,,59,985,187,67,1021.74,58.3,0
"2020-10-26 02:27:39+00",20.4,23.4,,59,913,211,45,1021.7,58.3,0
"2020-10-26 02:32:39+00",21.9,24.9,,59.1,997,175,55,1021.67,58.4,0
"2020-10-26 02:37:39+00",17.5,20.5,,59,772,201,33,1021.57,58.4,0
"2020-10-26 02:42:39+00",20.9,25.9,,59.1,941,207,81,1021.54,58.5,0
"2020-10-26 02:47:39+00",19.9,21.9,,59.1,902,220,63,1021.64,58.5,0
"2020-10-26 02:52:39+00",20.4,24.4,,59.2,911,242,54,1021.59,58.6,0
"2020-10-26 02:57:39+00",22.5,24.5,,59.3,1002,257,56,1021.46,58.6,0
"2020-10-26 03:02:39+00",18.8,22.8,,59.2,836,198,79,1021.52,58.7,0
"2020-10-26 03:07:39+00",23.1,25.1,,59.3,1003,330,58,1021.47,58.7,0
"2020-10-26 03:12:39+00",16.7,19.7,,59.2,738,166,63,1021.5,58.7,0
"2020-10-26 03:17:39+00",22.1,25.1,,59.2,972,271,64,1021.44,58.7,0
"2020-10-26 03:22:39+00",18.2,22.2,,59.2,803,184,62,1021.43,58.7,0
"2020-10-26 03:27:39+00",25.0,29.0,,59.2,1116,233,61,1021.35,58.7,0
"2020-10-26 03:32:39+00",22.6,25.6,,59.3,1044,154,76,1021.23,58.8,0
"2020-10-26 03:37:39+00",23.5,26.5,,59.4,1061,193,67,1021.15,58.9,0
"2020-10-26 03:42:39+00",18.8,22.8,,59.2,836,199,53,1021.21,58.9,0
"2020-10-26 03:47:39+00",21.2,26.2,,59.4,945,203,80,1021.2,58.9,0
"2020-10-26 03:52:39+00",18.4,21.4,,59.4,812,181,58,1021.33,59,0
"2020-10-26 03:57:39+00",18.4,21.4,,59.4,809,185,77,1021.33,59,0
"2020-10-26 04:02:39+00",16.5,19.5,,59.5,746,158,71,1021.31,59,0
"2020-10-26 04:07:39+00",19.0,21.0,,59.6,834,245,37,1021.31,59,0
"2020-10-26 04:12:39+00",18.8,22.8,,59.6,850,236,58,1021.22,59,0
"2020-10-26 04:17:39+00",21.0,24.0,,59.6,966,189,46,1021.2,59,0
"2020-10-26 04:22:39+00",16.9,19.9,,59.5,747,184,59,1021.16,59.1,0
"2020-10-26 04:27:39+00",18.3,22.3,,59.5,794,215,49,1021.16,59.1,0
"2020-10-26 04:32:39+00",19.7,23.7,,59.6,880,257,31,1021.22,59.1,0
"2020-10-26 04:37:39+00",16.0,18.0,,59.6,702,224,31,1021.25,59.1,0
"2020-10-26 04:42:39+00",17.9,22.9,,59.7,778,174,84,1021.14,59.1,0
"2020-10-26 04:47:39+00",19.0,23.0,,59.7,846,136,69,1021.16,59.2,0
"2020-10-26 04:52:39+00",17.7,19.7,,59.7,794,156,46,1021.03,59.2,0
"2020-10-26 04:57:39+00",21.9,25.9,,59.8,964,299,69,1020.92,59.3,0
"2020-10-26 05:02:39+00",19.9,22.9,,59.7,895,225,32,1020.88,59.2,0
"2020-10-26 05:07:39+00",19.6,22.6,,59.7,879,217,53,1020.85,59.3,0
"2020-10-26 05:12:39+00",18.8,22.8,,59.5,827,270,37,1020.99,59.1,0
"2020-10-26 05:17:39+00",15.9,19.9,,59.4,706,197,58,1021.08,59,0
"2020-10-26 05:22:39+00",18.6,21.6,,59.5,811,173,50,1020.97,58.9,0
"2020-10-26 05:27:39+00",18.8,21.8,,59.4,821,224,49,1020.81,58.9,0
"2020-10-26 05:32:39+00",18.6,21.6,,59.3,825,131,67,1020.69,58.9,0
"2020-10-26 05:37:39+00",19.0,22.0,,59.1,860,136,39,1020.76,58.8,0
"2020-10-26 05:42:39+00",17.1,22.1,,59,775,172,53,1020.75,58.7,0
"2020-10-26 05:47:39+00",20.3,24.3,,59,898,161,58,1020.66,58.7,0
"2020-10-26 05:52:39+00",19.9,22.9,,59.2,861,179,60,1020.47,58.7,0
"2020-10-26 05:57:39+00",19.4,22.4,,59.4,865,186,57,1020.22,58.8,0
"2020-10-26 06:02:39+00",20.1,22.1,,59.6,883,168,52,1020.18,58.9,0
"2020-10-26 06:07:39+00",19.6,23.6,,59.6,873,186,37,1020.13,58.9,0
"2020-10-26 06:12:39+00",18.6,21.6,,59.6,821,171,77,1020,59,0
"2020-10-26 06:17:39+00",18.0,21.0,,59.9,800,124,55,1019.95,59.2,0
"2020-10-26 06:22:39+00",20.1,22.1,,60,884,179,64,1019.86,59.3,0
"2020-10-26 06:27:39+00",17.7,21.7,,60.1,775,105,65,1020.08,59.5,0
"2020-10-26 06:32:39+00",19.8,23.8,,60.1,904,174,53,1020.07,59.5,0
"2020-10-26 06:37:39+00",20.4,22.4,,60.3,916,172,65,1020.2,59.6,0
"2020-10-26 06:42:39+00",18.5,21.5,,60.5,838,162,50,1020.26,59.8,0
"2020-10-26 06:47:39+00",19.3,21.3,,60.5,854,148,60,1020.17,59.9,0
"2020-10-26 06:52:39+00",20.4,22.4,,60.6,914,178,51,1020.1,60,0
"2020-10-26 06:57:39+00",19.8,22.8,,60.6,874,125,69,1019.98,60,0
"2020-10-26 07:02:39+00",18.8,20.8,,60.8,834,102,66,1020,60.1,0
"2020-10-26 07:07:39+00",16.9,19.9,,60.8,753,115,58,1019.96,60.3,0
"2020-10-26 07:12:39+00",20.0,23.0,,60.9,918,62,55,1019.82,60.4,0
"2020-10-26 07:17:39+00",18.6,22.6,,61,825,112,48,1019.77,60.5,0
"2020-10-26 07:22:39+00",18.7,21.7,,61,842,116,69,1019.87,60.6,0
"2020-10-26 07:27:39+00",20.7,23.7,,61.1,935,76,55,1019.9,60.5,0
"2020-10-26 07:32:39+00",19.5,23.5,,61.2,888,61,58,1019.84,60.6,0
"2020-10-26 07:37:39+00",17.6,19.6,,61.2,797,69,64,1019.84,60.7,0
"2020-10-26 07:42:39+00",18.4,22.4,,61.1,821,119,59,1019.76,60.7,0
"2020-10-26 07:47:39+00",22.0,26.0,,61.2,1005,91,42,1019.68,60.7,0
"2020-10-26 07:52:39+00",20.3,23.3,,61.1,924,74,38,1019.56,60.8,0
"2020-10-26 07:57:39+00",17.5,19.5,,60.9,784,112,54,1019.53,60.8,0
"2020-10-26 08:02:39+00",20.4,24.4,,60.8,945,124,52,1019.38,60.7,0
"2020-10-26 08:07:39+00",22.0,26.0,,60.8,1001,84,53,1019.31,60.6,0
"2020-10-26 08:12:39+00",20.2,23.2,,60.8,902,142,73,1019.16,60.6,0
"2020-10-26 08:17:39+00",19.1,23.1,,60.7,849,129,81,1019.25,60.6,0
"2020-10-26 08:22:39+00",19.0,22.0,,60.7,830,151,61,1019.24,60.6,0
"2020-10-26 08:27:39+00",20.7,23.7,,60.6,926,158,67,1019.21,60.5,0
"2020-10-26 08:32:39+00",17.8,20.8,,60.7,789,148,44,1019.09,60.5,0
"2020-10-26 08:37:39+00",21.3,23.3,,60.7,954,137,52,1019.05,60.5,0
"2020-10-26 08:42:39+00",18.6,20.6,,60.8,808,224,52,1019.11,60.6,0
"2020-10-26 08:47:39+00",17.8,20.8,,60.7,760,237,68,1019.23,60.5,0
"2020-10-26 08:52:39+00",15.8,18.8,,60.8,670,253,28,1019.32,60.6,0
"2020-10-26 08:57:39+00",17.3,19.3,,61,766,184,46,1019.27,60.7,0
"2020-10-26 09:02:39+00",15.0,18.0,,61.1,665,185,39,1019.4,60.8,0
"2020-10-26 09:07:39+00",14.0,16.0,,61.2,614,164,25,1019.4,60.9,0
"2020-10-26 09:12:39+00",14.8,16.8,,61.3,653,160,35,1019.29,61,0
"2020-10-26 09:17:39+00",15.8,16.8,,61.5,708,137,37,1019.31,61.1,0
"2020-10-26 09:22:39+00",13.9,15.9,,61.6,619,105,56,1019.24,61.2,0
"2020-10-26 09:27:39+00",15.7,16.7,,61.8,695,65,46,1019.2,61.3,0
"2020-10-26 09:32:39+00",16.8,19.8,,62,753,73,32,1019.2,61.4,0
"2020-10-26 09:37:39+00",17.0,19.0,,62,744,38,55,1019.31,61.5,0
"2020-10-26 09:42:39+00",14.6,16.6,,62,651,52,48,1019.3,61.6,0
"2020-10-26 09:47:39+00",14.7,19.7,,62.1,649,10,53,1019.36,61.7,0
"2020-10-26 09:52:39+00",13.7,15.7,,62.2,608,0,41,1019.32,61.7,0
"2020-10-26 09:57:39+00",14.0,17.0,,62.1,637,14,35,1019.38,61.7,0
"2020-10-26 10:02:39+00",13.5,15.5,,62.2,606,35,40,1019.42,61.8,0
"2020-10-26 10:07:39+00",13.9,16.9,,62.2,614,3,34,1019.42,61.8,0
"2020-10-26 10:12:39+00",14.9,18.9,,62.2,681,-14,38,1019.45,61.9,0
"2020-10-26 10:17:39+00",16.2,18.2,,62.3,731,-60,14,1019.39,61.9,0
"2020-10-26 10:22:39+00",17.4,18.4,,62.5,780,-54,23,1019.45,62,0
"2020-10-26 10:27:39+00",13.1,15.1,,62.5,589,-24,35,1019.51,62,0
"2020-10-26 10:32:39+00",18.8,21.8,,62.5,841,-60,43,1019.46,62,0
"2020-10-26 10:37:39+00",18.0,20.0,,62.6,796,-91,29,1019.51,62.1,0
"2020-10-26 10:42:39+00",15.5,17.5,,62.5,694,-73,19,1019.44,62.1,0
"2020-10-26 10:47:39+00",19.5,22.5,,62.5,875,-123,27,1019.38,62.1,0
"2020-10-26 10:52:39+00",18.1,20.1,,62.6,802,-106,22,1019.56,62.2,0
"2020-10-26 10:57:39+00",18.7,21.7,,62.6,835,-60,18,1019.54,62.2,0
"2020-10-26 11:02:39+00",15.7,18.7,,62.6,702,-55,27,1019.66,62.3,0
"2020-10-26 11:07:39+00",17.2,21.2,,62.7,749,-116,17,1019.71,62.2,0
"2020-10-26 11:12:39+00",18.3,22.3,,62.7,803,-82,30,1019.6,62.3,0
"2020-10-26 11:17:39+00",17.2,19.2,,62.7,768,-116,27,1019.58,62.3,0
"2020-10-26 11:22:39+00",15.8,18.8,,62.7,691,-80,32,1019.48,62.3,0
"2020-10-26 11:27:39+00",14.9,17.9,,62.8,677,-80,22,1019.58,62.3,0
"2020-10-26 11:32:39+00",13.9,14.9,,62.8,613,-83,38,1019.56,62.4,0
"2020-10-26 11:37:39+00",16.0,19.0,,62.9,716,-78,22,1019.59,62.4,0
"2020-10-26 11:42:39+00",18.5,21.5,,63.1,809,-157,21,1019.49,62.5,0
"2020-10-26 11:47:39+00",18.2,22.2,,63.2,809,-130,27,1019.57,62.6,0
"2020-10-26 11:52:39+00",17.9,20.9,,63.3,796,-106,29,1019.5,62.8,0
"2020-10-26 11:57:39+00",16.5,19.5,,63.4,749,-67,30,1019.53,62.9,0
"2020-10-26 12:02:39+00",17.8,20.8,,63.5,794,-91,34,1019.64,63,0
"2020-10-26 12:07:39+00",17.3,20.3,,63.4,775,-69,33,1019.59,63.1,0
"2020-10-26 12:12:39+00",17.1,19.1,,63.4,767,-68,14,1019.57,63.2,0
"2020-10-26 12:17:39+00",14.3,16.3,,63.4,650,-49,28,1019.7,63.2,0
"2020-10-26 12:22:39+00",17.5,19.5,,63.5,791,-68,25,1019.61,63.2,0
"2020-10-26 12:27:39+00",16.0,18.0,,63.5,730,-62,10,1019.63,63.3,0
"2020-10-26 12:32:39+00",13.7,15.7,,63.5,619,-69,33,1019.63,63.3,0
"2020-10-26 12:37:39+00",14.6,17.6,,63.5,652,-55,25,1019.57,63.4,0
"2020-10-26 12:42:39+00",14.5,16.5,,63.6,648,-81,25,1019.66,63.4,0
"2020-10-26 12:47:39+00",17.3,19.3,,63.8,772,-155,17,1019.72,63.6,0
"2020-10-26 12:52:39+00",15.2,20.2,,63.9,678,-143,10,1019.77,63.8,0
"2020-10-26 12:57:39+00",15.7,16.7,,64,694,-129,8,1019.79,63.8,0
"2020-10-26 13:02:39+00",17.5,21.5,,63.9,765,-199,-1,1019.64,63.8,0
"2020-10-26 13:07:39+00",17.8,21.8,,63.9,783,-183,27,1019.75,63.8,0
"2020-10-26 13:12:39+00",14.5,17.5,,63.9,637,-130,17,1019.91,63.8,0
"2020-10-26 13:17:39+00",16.1,19.1,,63.9,686,-200,36,1019.92,63.8,0
"2020-10-26 13:22:39+00",17.6,20.6,,63.9,787,-144,18,1019.99,63.9,0
"2020-10-26 13:27:39+00",14.0,18.0,,63.9,625,-75,26,1020.07,64,0
"2020-10-26 13:32:39+00",15.5,18.5,,63.9,709,-124,10,1020.1,64,0
"2020-10-26 13:37:39+00",15.5,17.5,,63.8,714,-33,26,1020.09,64,0
"2020-10-26 13:42:39+00",15.5,16.5,,63.9,696,-80,10,1020.2,64,0
"2020-10-26 13:47:39+00",14.9,17.9,,63.9,676,-61,39,1020.11,64.1,0
"2020-10-26 13:52:39+00",13.5,15.5,,63.9,608,-8,40,1020.22,64.2,0
"2020-10-26 13:57:39+00",14.1,16.1,,64,641,-58,14,1020.15,64.3,0
"2020-10-26 14:02:39+00",15.5,18.5,,64,691,-57,26,1020.04,64.4,0
"2020-10-26 14:07:39+00",14.1,17.1,,64.3,643,-27,34,1020.11,64.8,0
"2020-10-26 14:12:39+00",14.0,17.0,,64.4,638,-18,51,1020.08,65.1,0
"2020-10-26 14:17:39+00",15.9,17.9,,64.4,725,-14,26,1019.91,65.3,0
"2020-10-26 14:22:39+00",14.1,15.1,,64.5,625,-60,32,1019.79,65.5,0
"2020-10-26 14:27:39+00",14.8,16.8,,64.5,678,-63,23,1019.82,65.6,0
"2020-10-26 14:32:39+00",15.1,17.1,,64.5,685,-77,29,1019.71,65.7,0
"2020-10-26 14:37:39+00",17.1,18.1,,64.4,775,-81,2,1019.67,65.6,0
"2020-10-26 14:42:39+00",17.6,19.6,,64.5,791,-110,8,1019.64,65.7,0
"2020-10-26 14:47:39+00",15.0,16.0,,64.7,673,-95,6,1019.75,65.9,0
"2020-10-26 14:52:39+00",17.3,19.3,,64.6,772,-97,5,1019.54,65.9,0
"2020-10-26 14:57:39+00",13.4,15.4,,64.9,619,-48,39,1019.61,66.1,0
"2020-10-26 15:02:39+00",15.2,17.2,,65.1,690,-56,36,1019.57,66.3,0
"2020-10-26 15:07:39+00",16.4,19.4,,64.8,738,-121,5,1019.61,66.2,0
"2020-10-26 15:12:39+00",16.1,18.1,,64.9,719,-124,15,1019.59,66.2,0
"2020-10-26 15:17:39+00",16.3,17.3,,64.9,730,-107,29,1019.53,66.2,0
"2020-10-26 15:22:39+00",13.2,14.2,,64.9,597,-22,40,1019.54,66.2,0
"2020-10-26 15:27:39+00",14.1,16.1,,64.9,633,-84,13,1019.6,66.3,0
"2020-10-26 15:32:39+00",14.5,16.5,,65.1,663,-80,36,1019.69,66.6,0
"2020-10-26 15:37:39+00",16.3,17.3,,64.9,739,-78,-7,1019.72,66.4,0
"2020-10-26 15:42:39+00",14.5,16.5,,64.9,651,-107,11,1019.72,66.3,0
"2020-10-26 15:47:39+00",14.0,16.0,,64.9,629,-3,38,1019.64,66.2,0
"2020-10-26 15:52:39+00",13.7,15.7,,64.8,608,-60,2,1019.61,66.1,0
"2020-10-26 15:57:39+00",13.5,15.5,,65,615,-11,20,1019.59,66.1,0
"2020-10-26 16:02:39+00",11.6,13.6,,65.1,517,60,45,1019.61,66.4,0
"2020-10-26 16:07:39+00",10.5,11.5,,65.2,478,2,39,1019.6,66.4,0
"2020-10-26 16:12:39+00",12.7,14.7,,65,565,13,28,1019.55,66.4,0
"2020-10-26 16:17:39+00",12.2,14.2,,65.1,557,23,28,1019.54,66.4,0
"2020-10-26 16:22:39+00",12.8,13.8,,64.8,574,41,18,1019.57,66.1,0
"2020-10-26 16:27:39+00",10.7,11.7,,64.7,475,55,41,1019.52,66.1,0
"2020-10-26 16:32:39+00",11.7,12.7,,64.8,523,9,17,1019.42,66,0
"2020-10-26 16:37:39+00",11.2,13.2,,64.9,511,9,26,1019.36,65.9,0
"2020-10-26 16:42:39+00",10.5,11.5,,64.8,471,42,53,1019.37,66.1,0
"2020-10-26 16:47:39+00",10.7,11.7,,64.8,485,68,20,1019.46,66.1,0
"2020-10-26 16:52:39+00",10.4,12.4,,64.6,469,61,22,1019.44,66.2,0
"2020-10-26 16:57:39+00",10.3,11.3,,64.6,465,78,12,1019.39,66.2,0
"2020-10-26 17:02:39+00",9.0,10.0,,64.7,398,43,60,1019.29,66.3,0
"2020-10-26 17:07:39+00",10.3,11.3,,64.6,452,82,42,1019.16,66.3,0
"2020-10-26 17:12:39+00",11.2,12.2,,64.6,508,60,4,1019.08,66.4,0
"2020-10-26 17:17:39+00",10.7,11.7,,64.6,484,78,12,1018.99,66.6,0
"2020-10-26 17:22:39+00",10.5,12.5,,64.7,466,37,25,1018.96,66.6,0
"2020-10-26 17:27:39+00",11.4,13.4,,64.7,513,89,10,1018.88,66.6,0
"2020-10-26 17:32:39+00",11.2,12.2,,64.6,514,-27,3,1018.84,66.5,0
"2020-10-26 17:37:39+00",10.7,11.7,,64.4,490,60,32,1018.82,66.1,0
"2020-10-26 17:42:39+00",10.8,11.8,,64.6,487,-33,38,1018.75,66.3,0
"2020-10-26 17:47:39+00",11.2,12.2,,64.8,505,-73,16,1018.63,66.4,0
"2020-10-26 17:52:39+00",11.5,13.5,,64.6,513,-49,2,1018.51,66.2,0
"2020-10-26 17:57:39+00",11.2,13.2,,64.7,489,-107,26,1018.39,66.2,0
"2020-10-26 18:02:39+00",11.7,13.7,,64.8,530,-43,5,1018.3,66.3,0
"2020-10-26 18:07:39+00",10.8,12.8,,64.5,479,13,14,1018.28,66.3,0
"2020-10-26 18:12:39+00",10.5,12.5,,64.4,473,79,27,1018.28,66.5,0
"2020-10-26 18:17:39+00",10.5,11.5,,64.3,470,9,-1,1018.17,66.4,0
"2020-10-26 18:22:39+00",10.7,11.7,,64.4,477,50,18,1018.3,66.6,0
"2020-10-26 18:27:39+00",9.2,10.2,,64.3,407,53,42,1018.36,66.5,0
"2020-10-26 18:32:39+00",8.4,9.4,,64.3,380,27,24,1018.36,66.5,0
"2020-10-26 18:37:39+00",8.2,9.2,,64.3,363,-3,56,1018.31,66.4,0
"2020-10-26 18:42:39+00",8.8,9.8,,64.4,394,2,9,1018.15,66.5,0
"2020-10-26 18:47:39+00",9.7,10.7,,64.4,422,91,18,1018.09,66.5,0
"2020-10-26 18:52:39+00",8.6,9.6,,64.3,370,114,21,1017.98,66.6,0
"2020-10-26 18:57:39+00",8.2,9.2,,64.4,356,112,36,1018.04,66.7,0
"2020-10-26 19:02:39+00",8.8,10.8,,64.5,397,42,15,1018.04,66.7,0
"2020-10-26 19:07:39+00",7.8,9.8,,64.5,337,100,12,1018.02,66.6,0
"2020-10-26 19:12:39+00",6.9,8.9,,64.5,281,123,27,1018.02,66.6,0
"2020-10-26 19:17:39+00",7.6,8.6,,64.5,313,132,12,1017.93,66.5,0
"2020-10-26 19:22:39+00",9.2,11.2,,64.3,384,150,9,1017.9,66.4,0
"2020-10-26 19:27:39+00",8.5,9.5,,64.3,380,84,25,1017.96,66.3,0
"2020-10-26 19:32:39+00",8.2,9.2,,64.3,358,89,11,1017.94,66.3,0
"2020-10-26 19:37:39+00",7.9,8.9,,64.3,346,103,19,1017.92,66.3,0
"2020-10-26 19:42:39+00",8.0,9.0,,64.3,343,99,28,1017.87,66.4,0
"2020-10-26 19:47:39+00",8.5,10.5,,64.3,371,95,18,1017.98,66.4,0
"2020-10-26 19:52:39+00",7.7,9.7,,64.3,325,132,41,1018.04,66.3,0
"2020-10-26 19:57:39+00",7.3,8.3,,64.3,309,104,21,1018,66.2,0
"2020-10-26 20:02:39+00",6.3,7.3,,64.3,254,107,1,1018.11,66.1,0
"2020-10-26 20:07:39+00",7.8,9.8,,64.3,343,99,23,1017.99,66,0
"2020-10-26 20:12:39+00",8.3,9.3,,64.3,352,117,12,1017.87,65.9,0
"2020-10-26 20:17:39+00",9.2,10.2,,64.2,416,72,21,1017.77,65.8,0
"2020-10-26 20:22:39+00",8.9,9.9,,64.1,394,72,19,1017.68,65.7,0
"2020-10-26 20:27:39+00",8.9,9.9,,64.1,380,106,33,1017.71,65.7,0
"2020-10-26 20:32:39+00",8.6,9.6,,64.2,372,83,9,1017.83,65.5,0
"2020-10-26 20:37:39+00",7.5,8.5,,64.2,317,107,27,1017.81,65.6,0
"2020-10-26 20:42:39+00",7.6,8.6,,64.2,331,104,18,1017.92,65.5,0
"2020-10-26 20:47:39+00",7.8,8.8,,64.2,335,90,19,1017.99,65.4,0
"2020-10-26 20:52:39+00",6.4,8.4,,64.2,281,61,50,1017.96,65.4,0
"2020-10-26 20:57:39+00",7.4,8.4,,64.1,319,67,18,1017.91,65.3,0
"2020-10-26 21:02:39+00",7.5,8.5,,64.1,326,65,20,1017.81,65.3,0
"2020-10-26 21:07:39+00",6.7,8.7,,64.2,292,64,35,1017.92,65.2,0
"2020-10-26 21:12:39+00",6.3,7.3,,64.1,275,53,19,1017.83,65.1,0
"2020-10-26 21:17:39+00",6.2,7.2,,64.1,263,73,24,1017.97,65.2,0
"2020-10-26 21:22:39+00",5.4,6.4,,64.1,229,64,11,1017.89,65.2,0
"2020-10-26 21:27:39+00",5.9,6.9,,64.1,237,94,6,1018,65.2,0
"2020-10-26 21:32:39+00",3.9,4.9,,64.2,146,77,27,1018.03,65.2,0
"2020-10-26 21:37:39+00",4.7,4.7,,64.2,168,111,12,1018.1,65.2,0
"2020-10-26 21:42:39+00",5.7,5.7,,64.1,200,142,-1,1018.12,65.1,0
"2020-10-26 21:47:39+00",5.6,6.6,,64.1,200,136,9,1017.97,64.9,0
"2020-10-26 21:52:39+00",6.9,7.9,,64,268,148,9,1017.89,64.7,0
"2020-10-26 21:57:39+00",5.7,6.7,,64,225,112,25,1017.97,64.4,0
"2020-10-26 22:02:39+00",6.4,7.4,,63.9,271,96,17,1017.97,64.2,0
"2020-10-26 22:07:39+00",5.4,6.4,,63.7,217,97,11,1018.09,64,0
"2020-10-26 22:12:39+00",4.9,5.9,,63.7,191,95,11,1018.11,63.8,0
"2020-10-26 22:17:39+00",5.2,6.2,,63.6,213,97,14,1017.98,63.5,0
"2020-10-26 22:22:39+00",5.8,6.8,,63.5,205,152,12,1018.07,63.3,0
"2020-10-26 22:27:39+00",6.8,7.8,,63.4,226,189,11,1017.98,63.1,0
"2020-10-26 22:32:39+00",5.7,6.7,,63.3,117,210,5,1018.23,63,0
"2020-10-26 22:37:39+00",4.8,4.8,,63.1,-24,202,4,1018.24,62.9,0
"2020-10-26 22:42:39+00",6.0,7.0,,63.1,16,269,1,1018.07,63,0
"2020-10-26 22:47:39+00",6.8,7.8,,63.1,-2,289,3,1018.27,63.1,0
"2020-10-26 22:52:39+00",6.6,7.6,,63.2,87,257,-7,1018.17,63.1,0
"2020-10-26 22:57:39+00",6.7,7.7,,63.2,106,269,-8,1018.38,63.2,0
"2020-10-26 23:02:39+00",6.5,7.5,,63.3,89,250,2,1018.51,63.2,0
"2020-10-26 23:07:39+00",7.6,9.6,,63.3,155,284,-7,1018.43,63.2,0
"2020-10-26 23:12:39+00",7.9,9.9,,63.4,158,293,-1,1018.55,63.2,0
"2020-10-26 23:17:39+00",6.3,7.3,,63.3,84,250,1,1018.82,63.2,0
"2020-10-26 23:22:39+00",6.8,7.8,,63.4,131,262,-3,1018.78,63.2,0
"2020-10-26 23:27:39+00",7.5,8.5,,63.4,236,223,6,1018.79,63.2,0
"2020-10-26 23:32:39+00",7.5,8.5,,63.4,266,192,3,1018.68,63.2,0
"2020-10-26 23:37:39+00",7.7,8.7,,63.4,270,199,2,1018.73,63.2,0
"2020-10-26 23:42:39+00",7.4,8.4,,63.4,229,220,7,1018.79,63.3,0
"2020-10-26 23:47:39+00",5.7,6.7,,63.3,165,176,14,1018.83,63.2,0
"2020-10-26 23:52:39+00",7.6,8.6,,63.2,236,230,17,1018.84,63.2,0
"2020-10-26 23:57:39+00",7.2,8.2,,63.2,212,223,11,1018.79,63.2,0
